Location: Newark
(45.5000°N, 11.4167°E)
Time: 00:42:43
(UTC+00:00)

Transit 2A Rocket - All Passes

Search period start: 25 August 2019 00:00
Search period end: 04 September 2019 00:00
Orbit: 590 x 913 km, 66.7° (Epoch: 24 August)

Date Brightness Start Highest point End Pass type
(mag) Time Alt. Az. Time Alt. Az. Time Alt. Az.
25 Aug - 01:14:23 10° N 01:18:03 22° NE 01:21:31 10° E visible
25 Aug - 02:56:30 10° NW 03:00:59 56° WSW 03:05:11 10° SSE visible
25 Aug - 17:31:40 10° SSW 17:37:23 66° ESE 17:42:38 10° NE daylight
25 Aug - 19:15:45 10° W 19:20:21 26° NW 19:24:41 10° NNE visible
26 Aug - 00:32:22 10° N 00:35:07 15° NE 00:37:46 10° ENE visible
26 Aug - 02:13:54 10° NNW 02:18:32 81° ENE 02:22:50 10° SE visible
26 Aug - 03:58:57 10° W 04:00:15 11° WSW 04:01:31 10° WSW visible
26 Aug - 16:49:36 10° S 16:54:57 40° ESE 16:59:55 10° NE daylight
26 Aug - 18:32:22 10° WSW 18:37:35 38° NW 18:42:25 10° NNE visible
26 Aug - 20:20:35 10° NW 20:21:36 10° NNW 20:22:37 10° NNW visible
26 Aug - 23:50:54 10° NNE 23:52:04 11° NNE 23:53:13 10° NE visible
27 Aug - 01:31:28 10° NNW 01:35:55 46° NE 01:40:07 10° SE visible
27 Aug - 03:14:46 10° WNW 03:18:05 21° WSW 03:21:19 10° SSW visible
27 Aug - 16:08:02 10° SSE 16:12:36 25° ESE 16:16:55 10° ENE daylight
27 Aug - 17:49:18 10° SW 17:54:56 58° NW 18:00:05 10° NNE daylight
27 Aug - 19:35:38 10° WNW 19:38:32 14° NNW 19:41:19 10° N visible
28 Aug - 00:49:10 10° NNW 00:53:13 29° NE 00:57:01 10° ESE visible
28 Aug - 02:31:40 10° NW 02:35:50 37° WSW 02:39:48 10° S visible
28 Aug - 15:27:19 10° SE 15:30:22 15° ESE 15:33:18 10° ENE daylight
28 Aug - 17:06:37 10° SSW 17:12:22 89° ESE 17:17:38 10° NNE daylight
28 Aug - 18:51:34 10° W 18:55:34 20° NW 18:59:21 10° N visible
29 Aug - 00:07:01 10° N 00:10:22 19° NE 00:13:33 10° E visible
29 Aug - 01:48:55 10° NW 01:53:27 69° WSW 01:57:43 10° SSE visible
29 Aug - 16:24:17 10° SSW 16:29:52 56° ESE 16:35:02 10° NE daylight
29 Aug - 18:07:56 10° WSW 18:12:44 29° NW 18:17:12 10° NNE daylight
29 Aug - 23:25:07 10° N 23:27:24 13° NNE 23:29:36 10° ENE visible
30 Aug - 01:06:23 10° NNW 01:10:57 67° NE 01:15:14 10° SE visible
30 Aug - 02:50:33 10° WNW 02:52:50 14° WSW 02:55:03 10° SW visible
30 Aug - 15:42:23 10° S 15:47:28 34° ESE 15:52:14 10° NE daylight
30 Aug - 17:24:39 10° WSW 17:30:00 43° NW 17:34:56 10° NNE daylight
30 Aug - 19:12:06 10° NW 19:13:52 12° NNW 19:15:35 10° N visible
31 Aug - 00:24:00 10° NNW 00:28:19 39° NE 00:32:23 10° ESE visible
31 Aug - 02:06:59 10° NW 02:10:38 25° WSW 02:14:10 10° SSW visible
31 Aug - 15:01:03 10° SSE 15:05:10 21° ESE 15:09:04 10° ENE daylight
31 Aug - 16:41:43 10° SW 16:47:22 68° NW 16:52:33 10° NNE daylight
31 Aug - 18:27:34 10° WNW 18:30:50 16° NW 18:33:56 10° N visible
31 Aug - 23:41:44 10° NNW 23:45:33 25° NE 23:49:10 10° E visible
01 Sep - 01:24:01 10° NW 01:28:19 46° WSW 01:32:25 10° S visible
01 Sep - 14:20:55 10° SE 14:22:57 12° ESE 14:24:55 10° E daylight
01 Sep - 15:59:09 10° SSW 16:04:50 77° ESE 16:10:03 10° NE daylight
01 Sep - 17:43:39 10° W 17:47:55 22° NW 17:51:55 10° N daylight
01 Sep - 22:59:41 10° N 23:02:40 17° NE 23:05:32 10° ENE visible
02 Sep - 00:41:22 10° NW 00:45:54 84° WSW 00:50:12 10° SSE visible
02 Sep - 15:16:57 10° S 15:22:23 47° ESE 15:27:24 10° NE daylight
02 Sep - 17:00:08 10° WSW 17:05:07 33° NW 17:09:43 10° NNE daylight
02 Sep - 22:17:59 10° N 22:19:40 12° NNE 22:21:18 10° NE visible
02 Sep - 23:58:53 10° NNW 00:03:21 55° NE 00:07:35 10° SE visible
03 Sep - 01:42:31 10° WNW 01:45:24 17° WSW 01:48:11 10° SSW night (unlit)
03 Sep - 14:35:13 10° S 14:40:00 29° ESE 14:44:29 10° NE daylight
03 Sep - 16:16:58 10° SW 16:22:25 50° NW 16:27:25 10° NNE daylight
03 Sep - 18:03:51 10° WNW 18:06:08 13° NNW 18:08:21 10° N daylight
03 Sep - 23:16:33 10° NNW 23:20:41 33° NE 23:24:36 10° ESE visible
